Date String (YYYY-MM-DD hh:mm:ss) UTC,Instrument flags,absolute air pressure of the measurement (hPa),sample flow rate (lpm),inlet stack bypass flow (lpm),air temperature of the measurement (°C),ambient temperature measured by the external sensor (°C),aerosol sample conditioner tube jacket temperature (°C),OPC LED temperature (°C),internal box temperature (°C),relative humidity of the measurement (%),span deviation,mass concentration of particles derived from Lorenz-Mie calculation of OPC scattering (μg/m³),mass concentration of particles derived from Lorenz-Mie calculation of OPC scattering (μg/m³),mass concentration of particles derived from Lorenz-Mie calculation of OPC scattering (μg/m³)
DateTimeUTC,F1_M11,P_M11,Q1_M11,Q2_M11,T1_M11,T2_M11,T3_M11,T4_M11,T5_M11,U1_M11,ZSPAN_M11,X0_M11,X2_M11,X1_M11
2023-09-06 21:00:00,SystemResetWarning,0832.0,5.00,000.00,027.7,024.7,000.0,036.0,029.1,27.9,0002.1,0031.37,0016.76,0015.19
2023-09-06 21:01:00,SystemResetWarning,0832.0,4.99,000.00,027.7,025.2,000.0,036.0,029.2,28.4,0002.0,0031.02,0016.86,0015.28
2023-09-06 21:02:00,SystemResetWarning,0832.0,4.99,000.00,027.7,025.6,000.0,036.0,029.4,28.0,0002.0,0031.81,0016.96,0015.35
2023-09-06 21:03:00,SystemResetWarning,0832.0,5.00,000.00,027.8,026.1,000.0,036.0,029.5,27.7,0002.0,0031.51,0016.99,0015.38
2023-09-06 21:04:00,SystemResetWarning,0832.0,5.01,000.00,027.8,026.5,000.0,036.1,029.6,27.5,0002.1,0031.27,0017.05,0015.41
2023-09-06 21:05:00,SystemResetWarning,0832.0,5.00,000.00,027.9,026.3,000.0,036.1,029.6,27.7,0002.1,0031.83,0017.12,0015.45
2023-09-06 21:06:00,SystemResetWarning,0831.9,4.99,000.00,027.8,025.0,000.0,036.0,029.1,26.7,0002.2,0033.62,0017.11,0015.46
2023-09-06 21:07:00,SystemResetWarning,0831.9,5.01,000.00,027.7,024.4,000.0,036.0,029.0,27.5,0002.1,0033.86,0017.17,0015.47
2023-09-06 21:08:00,SystemResetWarning,0831.9,5.01,000.00,027.7,024.5,000.0,035.9,029.0,28.0,0002.3,0034.63,0017.18,0015.49
2023-09-06 21:09:00,SystemResetWarning,0831.9,5.00,000.00,027.6,024.9,000.0,036.0,029.1,28.0,0002.4,0035.26,0017.17,0015.50
2023-09-06 21:10:00,SystemResetWarning,0831.9,5.00,000.00,027.6,025.3,000.0,036.0,029.3,27.7,0002.4,0035.45,0017.14,0015.43
2023-09-06 21:11:00,SystemResetWarning,0831.8,5.00,000.00,027.7,025.8,000.0,036.0,029.4,28.2,0002.5,0035.81,0017.07,0015.38
2023-09-06 21:12:00,SystemResetWarning,0831.9,5.00,000.00,027.8,026.2,000.0,036.0,029.5,28.3,0002.5,0036.26,0017.13,0015.39
2023-09-06 21:13:00,SystemResetWarning,0831.9,4.99,000.00,027.8,026.1,000.0,036.0,029.4,28.3,0002.5,0036.33,0017.09,0015.39
2023-09-06 21:14:00,SystemResetWarning,0831.8,4.99,000.00,027.7,024.9,000.0,036.0,029.0,27.7,0002.4,0037.07,0017.14,0015.39
2023-09-06 21:15:00,SystemResetWarning,0832.2,5.02,000.00,027.6,024.2,000.0,035.9,028.9,27.5,0002.3,0037.47,0017.16,0015.38
2023-09-06 21:16:00,SystemResetWarning,0831.8,5.00,000.00,027.6,024.4,000.0,035.9,028.9,27.5,0002.4,0038.19,0017.14,0015.35
2023-09-06 21:17:00,SystemResetWarning,0832.1,4.99,000.00,027.5,024.8,000.0,035.9,029.0,27.7,0002.4,0037.16,0017.14,0015.30
2023-09-06 21:18:00,SystemResetWarning,0832.1,5.00,000.00,027.6,025.3,000.0,035.9,029.2,27.4,0002.4,0036.17,0017.09,0015.22
2023-09-06 21:19:00,SystemResetWarning,0832.0,5.01,000.00,027.6,025.7,000.0,035.9,029.3,28.4,0002.4,0036.38,0017.02,0015.16
2023-09-06 21:20:00,SystemResetWarning,0832.1,5.01,000.00,027.7,026.1,000.0,035.9,029.4,27.7,0002.3,0036.70,0017.03,0015.11
2023-09-06 21:21:00,SystemResetWarning,0831.8,4.99,000.00,027.8,026.4,000.0,035.9,029.5,27.3,0002.4,0039.67,0017.08,0015.12
2023-09-06 21:22:00,SystemResetWarning,0831.9,4.98,000.00,027.8,025.6,000.0,035.9,029.3,27.3,0002.5,0041.95,0017.09,0015.05
2023-09-06 21:23:00,SystemResetWarning,0832.2,5.01,000.00,027.6,024.5,000.0,035.9,028.9,27.3,0002.6,0042.18,0016.88,0014.82
2023-09-06 21:24:00,SystemResetWarning,0831.9,5.01,000.00,027.6,024.4,000.0,035.8,028.9,27.2,0002.6,0041.56,0016.70,0014.65
2023-09-06 21:25:00,SystemResetWarning,0831.9,5.01,000.00,027.5,024.6,000.0,035.8,028.9,27.4,0002.6,0041.10,0016.68,0014.59
2023-09-06 21:26:00,SystemResetWarning,0831.7,4.99,000.00,027.5,025.1,000.0,035.8,029.1,27.6,0002.6,0041.12,0016.65,0014.57
2023-09-06 21:27:00,SystemResetWarning,0831.7,5.00,000.00,027.6,025.5,000.0,035.8,029.3,27.1,0002.6,0040.75,0016.63,0014.55
2023-09-06 21:28:00,SystemResetWarning,0832.0,5.00,000.00,027.6,026.0,000.0,035.9,029.4,27.2,0002.6,0040.92,0016.66,0014.57
2023-09-06 21:29:00,SystemResetWarning,0832.2,4.99,000.00,027.7,026.4,000.0,035.9,029.5,25.9,0002.5,0041.98,0016.61,0014.58
2023-09-06 21:30:00,SystemResetWarning,0832.2,5.00,000.00,027.8,026.7,000.0,035.9,029.6,25.5,0002.6,0041.04,0016.62,0014.57
2023-09-06 21:31:00,SystemResetWarning,0831.7,4.98,000.00,027.8,025.9,000.0,035.9,029.4,25.7,0002.5,0040.08,0016.56,0014.55
2023-09-06 21:32:00,SystemResetWarning,0831.7,5.00,000.00,027.7,024.7,000.0,035.9,029.0,26.5,0002.4,0037.51,0016.49,0014.50
2023-09-06 21:33:00,SystemResetWarning,0831.7,5.01,000.00,027.6,024.5,000.0,035.8,029.0,26.7,0002.1,0036.36,0016.45,0014.53
2023-09-06 21:34:00,SystemResetWarning,0831.7,5.00,000.00,027.6,024.7,000.0,035.8,029.0,26.7,0001.9,0036.50,0016.59,0014.64
2023-09-06 21:35:00,SystemResetWarning,0831.7,5.00,000.00,027.6,025.2,000.0,035.9,029.2,26.2,0001.9,0036.98,0016.71,0014.74
2023-09-06 21:36:00,SystemResetWarning,0831.6,5.00,000.00,027.6,025.6,000.0,035.9,029.3,26.1,0001.7,0036.51,0016.68,0014.71
2023-09-06 21:37:00,SystemResetWarning,0831.7,5.00,000.00,027.7,026.1,000.0,035.9,029.4,25.7,0001.8,0036.97,0016.64,0014.64
2023-09-06 21:38:00,SystemResetWarning,0831.6,5.00,000.00,027.8,026.4,000.0,035.9,029.5,25.6,0001.9,0035.74,0016.54,0014.56
2023-09-06 21:39:00,SystemResetWarning,0831.6,4.99,000.00,027.8,025.7,000.0,035.9,029.3,25.5,0001.7,0034.45,0016.40,0014.45
2023-09-06 21:40:00,SystemResetWarning,0831.6,4.99,000.00,027.6,024.5,000.0,035.9,028.9,26.6,0001.6,0033.29,0016.31,0014.37
2023-09-06 21:41:00,SystemResetWarning,0831.6,5.02,000.00,027.6,024.3,000.0,035.8,028.9,26.9,0001.5,0033.25,0016.31,0014.32
2023-09-06 21:42:00,SystemResetWarning,0831.6,5.00,000.00,027.5,024.6,000.0,035.8,028.9,26.5,0001.5,0032.70,0016.20,0014.23
2023-09-06 21:43:00,SystemResetWarning,0831.6,4.99,000.00,027.5,025.1,000.0,035.8,029.1,26.2,0001.5,0033.36,0016.06,0014.07
2023-09-06 21:44:00,SystemResetWarning,0831.6,5.01,000.00,027.6,025.6,000.0,035.9,029.2,26.0,0001.4,0032.79,0016.00,0013.96
2023-09-06 21:45:00,SystemResetWarning,0831.6,5.00,000.00,027.6,026.0,000.0,035.9,029.4,25.6,0001.6,0032.75,0015.89,0013.87
2023-09-06 21:46:00,SystemResetWarning,0831.6,4.99,000.00,027.7,026.4,000.0,035.9,029.5,25.4,0001.8,0032.00,0015.76,0013.78
2023-09-06 21:47:00,SystemResetWarning,0831.6,4.99,000.00,027.8,026.3,000.0,035.9,029.5,24.9,0001.9,0032.34,0015.73,0013.69
2023-09-06 21:48:00,SystemResetWarning,0831.6,5.00,000.00,027.7,025.1,000.0,035.9,029.1,25.5,0002.0,0032.92,0015.68,0013.64
2023-09-06 21:49:00,SystemResetWarning,0831.6,5.01,000.00,027.6,024.3,000.0,035.8,028.9,25.7,0001.9,0033.87,0015.62,0013.59
2023-09-06 21:50:00,SystemResetWarning,0831.6,5.02,000.00,027.5,024.5,000.0,035.8,028.9,25.3,0002.0,0034.24,0015.62,0013.55
2023-09-06 21:51:00,SystemResetWarning,0831.6,4.99,000.00,027.5,024.8,000.0,035.8,029.0,24.7,0002.2,0034.89,0015.58,0013.47
2023-09-06 21:52:00,SystemResetWarning,0831.6,5.00,000.00,027.6,025.3,000.0,035.8,029.2,24.2,0002.3,0035.77,0015.50,0013.34
2023-09-06 21:53:00,SystemResetWarning,0831.6,5.00,000.00,027.6,025.8,000.0,035.9,029.3,24.5,0002.3,0035.69,0015.40,0013.28
2023-09-06 21:54:00,SystemResetWarning,0831.6,5.00,000.00,027.7,026.2,000.0,035.9,029.4,24.9,0002.4,0035.34,0015.33,0013.22
2023-09-06 21:55:00,SystemResetWarning,0831.6,5.00,000.00,027.7,026.5,000.0,035.9,029.6,24.4,0002.5,0036.14,0015.23,0013.17
2023-09-06 21:56:00,SystemResetWarning,0831.6,4.98,000.00,027.8,025.8,000.0,035.9,029.3,24.5,0002.4,0036.89,0015.13,0013.07
2023-09-06 21:57:00,SystemResetWarning,0831.6,5.00,000.00,027.6,024.5,000.0,035.8,028.9,25.0,0002.4,0036.75,0015.07,0013.00
2023-09-06 21:58:00,SystemResetWarning,0831.5,5.02,000.00,027.6,024.3,000.0,035.8,028.9,25.5,0002.5,0036.26,0014.97,0012.90
2023-09-06 21:59:00,SystemResetWarning,0831.5,4.99,000.00,027.5,024.6,000.0,035.8,028.9,25.9,0002.3,0036.85,0014.78,0012.77
